Regional Weather Roundup
Issued by NWS

Home | Current Version | Previous Version | Text Only | Print | Product List | Glossary On
Versions: 1 2 3 4 5 6 7 8 9 10 11 12 13 14 15 16 17 18 19 20 21 22 23 24 25 26 27
000
ASUS42 KTBW 280717
RWRFL
FLORIDA REGIONAL WEATHER ROUNDUP
NATIONAL WEATHER SERVICE TAMPA BAY RUSKIN FL
300 AM EDT FRI JUL 28 2017

NOTE: "FAIR" INDICATES FEW OR NO CLOUDS BELOW 12,000 FEET WITH NO
SIGNIFICANT WEATHER AND/OR OBSTRUCTIONS TO VISIBILITY.

FLZ001>010-012>015-112-114-115-280800-
PANHANDLE FLORIDA

CITY           SKY/WX    TMP DP  RH WIND       PRES   REMARKS
PENSACOLA      PTCLDY    79  76  90 CALM      29.93F
PENSACOLA NAS  CLEAR     77  75  93 CALM      29.92F
MILTON NAS     PTCLDY    73  73 100 CALM      29.94
CRESTVIEW      CLEAR     75  72  90 CALM      29.94F
DUKE FIELD     FAIR      74  72  91 CALM      29.93F
VALPARAISO     PTCLDY    77  73  87 NW3       29.93F
MARY ESTHER    CLEAR     78  73  84 CALM      29.92F
PANAMA CITY    FAIR      77  75  93 SE3       29.92F
TYNDALL AFB    CLEAR     78  77  95 CALM      29.93F
APALACHICOLA   CLEAR     76  75  97 CALM      29.93F

STATION/POSITION SKY/WX   TEMP    WIND        PRES    WAVE   SWELL
                          AIR SEA DIR/SP/G            HT/PER HT/PER
                          (F)     (DEG/KT/KT) (MB)    (FT/S) (FT/S)
30.1N   87.6W              85 87  260/  6/  8 1013.3F   0
29.2N   88.2W              86 87  250/  6/  8 1013.8
28.8N   86.0W              84 86  240/  2/  4 1013.9F   1
PANAMA CITY BEAC           81      90/  4/  6 1013.8F
TOWER C                    83                 1014.3F
28.5N   84.5W              84 86  210/  2/  4 1014.0F   1

$$
FLZ011-016>038-118-127-128-134-139-239-280800-
NORTH FLORIDA

CITY           SKY/WX    TMP DP  RH WIND       PRES   REMARKS
MARIANNA       PTCLDY    78  76  93 SW3       29.93F
TALLAHASSEE    PTCLDY    76  75  97 CALM      29.93F
PERRY          PTCLDY    77  75  95 CALM      29.95S
LIVE OAK       CLEAR     75  75 100 CALM      29.94F
CROSS CITY     PTCLDY    75  74  95 CALM      29.98F
LAKE CITY      FAIR      73  73 100 CALM      29.94F
GAINESVILLE    PTCLDY    76  74  93 CALM      29.96F
WILLISTON      CLEAR     75  75 100 CALM      29.94F FOG
PALATKA        FAIR      77  77 100 CALM      29.94F
MAYPORT NAS    LGT RAIN  76  76 100 CALM      29.92F
JACKSONVILLE   CLOUDY    76  76 100 W8        29.92F
JAX NAS        CLOUDY    80  77  90 SW9       29.92F
JAX CECIL      MOCLDY    77  77 100 CALM      29.92F
FERNANDINA BEA MOCLDY    79  75  89 SE3       29.90F
ST AUGUSTINE   MOCLDY    78  76  93 SW5       29.93F
PALM COAST     FAIR      75  20  12 SW3       29.93F

STATION/POSITION SKY/WX   TEMP    WIND        PRES    WAVE   SWELL
                          AIR SEA DIR/SP/G            HT/PER HT/PER
                          (F)     (DEG/KT/KT) (MB)    (FT/S) (FT/S)
SHELL POINT      NOT AVBL
KEATON BEACH               79      30/  2/  3 1013.2F
CEDAR KEY                  84     260/  3/  4 1014.0F
FERNANDINA                 77 80  120/  4/  6 1013.7F
30.7N   81.3W                 79                N/A     2/ 8
MAYPORT                    76 78   90/  2/  4 1013.6F
31.4N   80.9W              80 81  240/ 10/ 12 1012.1F   2/ 8   2/ 8
ST AUGUSTINE               77 76  220/  7/  9 1013.3F

$$
FLZ040-043>046-052-053-057-058-063-144-280800-
INTERIOR CENTRAL FLORIDA

CITY           SKY/WX    TMP DP  RH WIND       PRES   REMARKS
OCALA          CLEAR     75  74  96 CALM      29.95F
THE VILLAGES     N/A     79  79 100 CALM      29.85F
LEESBURG       CLEAR     80  76  87 CALM      29.96F
SANFORD        PTCLDY    78  74  87 S5        29.95F
ORLANDO EXEC   PTCLDY    80  77  90 S5        29.96F
ORLANDO INTL   MOCLDY    78  76  93 SW5       29.96F
KISSIMMEE      MOCLDY    79  75  87 SW5       29.97F
WINTER HAVEN   PTCLDY    78  74  87 S3        29.98F
LAKELAND         N/A     77  77 100 SE3       29.98S
BARTOW         MOCLDY    75  75 100 CALM      29.98S
SEBRING        FAIR      80  74  83 SW6       29.96F
OKEECHOBEE     CLEAR     77  73  88 CALM      29.96F

$$
FLZ041-047-054-059-064-141-147-280800-
EAST CENTRAL FLORIDA

CITY           SKY/WX    TMP DP  RH WIND       PRES   REMARKS
DAYTONA BEACH  PTCLDY    77  74  90 S7        29.94F
DELAND         PTCLDY    77  73  88 S3        29.94F
JFK SPACE CTR  PTCLDY    81  77  86 S7        29.94F
CAPE CANAVERAL MOCLDY    81  76  85 S8        29.94F
PATRICK AFB    CLOUDY    82  76  81 SW12      29.94F
MELBOURNE      CLOUDY    82  76  81 S6        29.95F
VERO BEACH     CLEAR     79  75  87 SW3       29.96F
FT PIERCE      CLEAR     78  76  93 CALM      29.95F
STUART         PTCLDY    79  79 100 CALM      29.97F

STATION/POSITION SKY/WX   TEMP    WIND        PRES    WAVE   SWELL
                          AIR SEA DIR/SP/G            HT/PER HT/PER
                          (F)     (DEG/KT/KT) (MB)    (FT/S) (FT/S)
28.5N   80.2W              83 84  200/ 14/ 16 1015.3F   2/ 3   2/ 7
28.9N   78.5W              84 85  170/ 14/ 16 1014.1F   3/ 7   2/ 7
TRIDENT PIER               82 84  180/  9/ 12 1015.8F
28.4N   80.5W                 82                N/A     2/ 3
27.5N   80.2W                 80                N/A     2/ 8

$$
FLZ050-056-061-142-242-148-248-149-249-151-251-155-255-
160-260-280800-
WEST CENTRAL FLORIDA

CITY           SKY/WX    TMP DP  RH WIND       PRES   REMARKS
CRYSTAL RIVER  FAIR      75  73  94 CALM      29.94F
INVERNESS      FAIR      73  73 100 CALM      29.95F
BROOKSVILLE    CLEAR     75  73  93 CALM      29.95F
CLEARWATER AIR FAIR      81  73  78 CALM      29.95F
ST PETE CLEARW CLEAR     80  75  84 CALM      29.95F
TAMPA INTL     MOCLDY    84  74  71 W7        29.95F
TAMPA EXEC     PTCLDY    77  73  88 CALM      29.96F
PLANT CITY     PTCLDY    79  77  94 CALM      29.98F
MACDILL AFB    PTCLDY    79  76  90 CALM      29.95F
PETER O KNIGHT MOCLDY    84  77  79 CALM      29.96S
ST PETERSBURG  CLEAR     86  71  60 CALM      29.93F
SARASOTA       MOCLDY    80  76  87 SE6       29.94F
VENICE         FAIR      81  72  74 SE6       29.96F

STATION/POSITION SKY/WX   TEMP    WIND        PRES    WAVE   SWELL
                          AIR SEA DIR/SP/G            HT/PER HT/PER
                          (F)     (DEG/KT/KT) (MB)    (FT/S) (FT/S)
27.3N   84.2W                 87                N/A     1/ 7
CLEARWATER BEACH           85 89  250/  6/  7 1014.4F
MIDDLE TAMPA BAY           86     280/  4/  6 1014.6F
VENICE                     81 89  110/  5/  7 1014.4F

$$
FLZ066-069-070-075>078-162-262-165-265-280800-
SOUTHWEST FLORIDA AND KEYS

CITY           SKY/WX    TMP DP  RH WIND       PRES   REMARKS
PUNTA GORDA    CLEAR     77  73  87 S3        29.97F
FT MYERS       PTCLDY    78  77  96 E3        29.95F
SOUTHWEST INTL CLEAR     77  75  93 SE3       29.95F
NAPLES         PTCLDY    79  74  84 S6        29.95F
MARCO ISLAND   PTCLDY    81  75  83 E3        29.96F
IMMOKALEE      FAIR      77  75  94 CALM      29.97F
MARATHON       PTCLDY    84  78  82 SE5       29.94F HX  95
KEY WEST NAS   PTCLDY    84  79  85 SE7       29.95F HX  96
KEY WEST INTL  PTCLDY    85  77  77 SE9       29.95F HX  95

STATION/POSITION SKY/WX   TEMP    WIND        PRES    WAVE   SWELL
                          AIR SEA DIR/SP/G            HT/PER HT/PER
                          (F)     (DEG/KT/KT) (MB)    (FT/S) (FT/S)
NAPLES                        90  160/  5/  9 1014.3F
DRY TORTUGAS               85     120/  4/  5 1014.5F
SAND KEY                   84                 1014.8F
MOLASSES REEF              84 87   30/  2     1015.1F

$$
FLZ067-068-071>074-168-172>174-280800-
SOUTHEAST FLORIDA

CITY           SKY/WX    TMP DP  RH WIND       PRES   REMARKS
W PALM BEACH   PTCLDY    81  76  84 W3        29.96F
FT LAUDER-EXEC PTCLDY    81  74  79 CALM      29.95F
FT LAUDERDALE  PTCLDY    82  76  81 CALM      29.94F
POMPANO BEACH  PTCLDY    85  77  77 S5        29.95F HX  95
PEMBROKE PINES CLEAR     81  78  91 CALM      29.97F
OPA LOCKA      CLEAR     81  80  97 CALM      29.96F
MIAMI          PTCLDY    83  75  77 CALM      29.96F
WEST KENDALL   PTCLDY    80  75  84 CALM      29.96F
HOMESTEAD      CLEAR     81  80  96 CALM      29.95F

STATION/POSITION SKY/WX   TEMP    WIND        PRES    WAVE   SWELL
                          AIR SEA DIR/SP/G            HT/PER HT/PER
                          (F)     (DEG/KT/KT) (MB)    (FT/S) (FT/S)
PORT EVERGLADES            84     170/  3/  8 1014.4F
VIRGINIA KEY               85 89  130/  3/  3 1013.9F
LAKE WORTH                        180/  6/  8   N/A
FOWEY ROCKS                84 86  150/  6/  7 1015.5F
SETTLEMENT POINT           83     160/  7/  9 1014.7F

$$





USA.gov is the U.S. government's official web portal to all federal, state and local government web resources and services.